This is the latest recevied weather packets stored in our database for station/object KK4MOR. If no packets are shown the sender has not sent any weather packets the latest 10 day(s).
| Time | Temp. | Humidity | Pressure | Rain* | Wind** | Luminosity | Snow |
|---|---|---|---|---|---|---|---|
| 1777830335 | 16.11° C | 46% | 1019.2 hPa | 0 mm | - | - | - |
| 1777829442 | 15.56° C | 47% | 1019.4 hPa | 0 mm | - | - | - |
| 1777828528 | 15° C | 47% | 1019.6 hPa | 0 mm | - | - | - |
| 1777827626 | 15° C | 51% | 1019.7 hPa | 0 mm | - | - | - |
| 1777826724 | 15° C | 54% | 1019.8 hPa | 0 mm | - | - | - |
| 1777825827 | 14.44° C | 46% | 1020 hPa | 0 mm | - | - | - |
| 1777824925 | 14.44° C | 45% | 1020.3 hPa | 0 mm | - | - | - |
| 1777824031 | 13.89° C | 47% | 1020.3 hPa | 0 mm | - | - | - |
| 1777823119 | 13.89° C | 47% | 1020.5 hPa | 0 mm | - | - | - |
| 1777822213 | 13.33° C | 47% | 1020.5 hPa | 0 mm | - | - | - |
| 1777821312 | 13.33° C | 52% | 1020.6 hPa | 0 mm | - | - | - |
| 1777820407 | 12.78° C | 50% | 1020.7 hPa | 0 mm | - | - | - |
| 1777819504 | 12.22° C | 51% | 1020.5 hPa | 0 mm | - | - | - |
| 1777818660 | 11.67° C | 54% | 1020.5 hPa | 0 mm | - | - | - |
| 1777817757 | 10.56° C | 75% | 1020.4 hPa | 0 mm | - | - | - |
| 1777816852 | 10° C | 83% | 1020.5 hPa | 0 mm | - | - | - |
| 1777815948 | 9.44° C | 91% | 1020.4 hPa | 0 mm | - | - | - |
| 1777815050 | 8.89° C | 93% | 1020.4 hPa | 0 mm | - | - | - |
| 1777814142 | 7.78° C | 97% | 1020.4 hPa | 0 mm | - | - | - |
| 1777813241 | 7.22° C | 97% | 1020.4 hPa | 0 mm | - | - | - |
| 1777812336 | 6.67° C | 97% | 1020.3 hPa | 0 mm | - | - | - |
| 1777811430 | 5.56° C | 97% | 1020.3 hPa | 0 mm | - | - | - |
| 1777810530 | 4.44° C | 97% | 1020.2 hPa | 0 mm | - | - | - |
| 1777809629 | 3.33° C | 96% | 1020.1 hPa | 0 mm | - | - | - |
| 1777808727 | 3.33° C | 96% | 1019.8 hPa | 0 mm | - | - | - |
* Rain latest hour (hover to see other rain measurements)
** Current wind speed in m/s (hover to see current wind gust speed)